{"data":{"norad_id":54856,"intl_designator":"2022-177AN","name":"STARLINK-5086","alt_names":[],"object_type":"PAYLOAD","status":"ACTIVE","operator":null,"country":"US","launch_date":"2022-12-28","launch_site_code":"AFETR","launch_vehicle":null,"mission":null,"orbit_class":"UNKNOWN","rcs_meters":null,"size_class":null,"mass_kg":null,"dimensions":null,"purposes":["comms"],"wikipedia_slug":null,"has_3d_model":false,"image_url":null,"decayed_at":null,"tle_current":{"epoch":"2026-05-25T03:47:42.388800Z","epoch_age_seconds":71459,"freshness":"FRESH","line1":"1 54856U 22177AN  26145.15812950 -.00000019  00000+0  88246-5 0  9999","line2":"2 54856  43.0028  49.8814 0001129 220.9688 139.1079 15.27576962188781","mean_motion":15.27576962,"eccentricity":0.0001129,"inclination_deg":43.0028,"raan_deg":49.8814,"arg_perigee_deg":220.9688,"mean_anomaly_deg":139.1079,"bstar":8.8246e-6,"rev_number":18878,"period_min":94.266936188581,"perigee_km":482.28356398236,"apogee_km":483.83282185692,"semimajor_km":6861.1951929196,"source":"CELESTRAK","updated_at":"2026-05-25T13:38:17.726654Z"}}}